When you browse on this site, cookies collect data to enhance your experience and personalize the content and advertising you see.
Visit our Privacy Policy to learn more. By continuing to use the site, you agree to this use of cookies and data.
  • en Belgique
  • Liste des pays
  • À 7 jours
  • Température de l'eau
  • Carte satellitaire
  • Carte météo
  • Widgets météo
  • user-avatar
    Se connecter

    Météo par heure à Batna

    Ce jour, 23 Janvier, Mercredi

    Heure Température Précipitation Vent Pression Humidité
    00:00 -1°C° 0 mm 2 m/s 662 mmHg 81%
    01:00 -1°C° 0 mm 2 m/s 661 mmHg 80%
    02:00 -1°C° 0 mm 2 m/s 661 mmHg 79%
    03:00 -1°C° 0 mm 2 m/s 660 mmHg 79%
    04:00 -1°C° 0 mm 2 m/s 660 mmHg 80%
    05:00 -1°C° 0 mm 2 m/s 660 mmHg 81%
    06:00 -1°C° 0 mm 3 m/s 659 mmHg 83%
    07:00 0°C° 0.1 mm 3 m/s 659 mmHg 83%
    08:00 +1°C° 0.1 mm 3 m/s 660 mmHg 83%
    09:00 0°C° 0.1 mm 4 m/s 660 mmHg 83%
    10:00 +1°C° 0 mm 5 m/s 660 mmHg 77%
    11:00 +2°C° 0 mm 6 m/s 659 mmHg 72%
    12:00 +3°C° 0 mm 7 m/s 659 mmHg 66%
    13:00 +3°C° 0.2 mm 6 m/s 659 mmHg 69%
    14:00 +3°C° 0.2 mm 6 m/s 658 mmHg 71%
    15:00 +3°C° 0.2 mm 5 m/s 658 mmHg 73%
    16:00 +2°C° 0.7 mm 6 m/s 657 mmHg 79%
    17:00 +2°C° 0.7 mm 6 m/s 657 mmHg 84%
    18:00 +2°C° 0.7 mm 6 m/s 656 mmHg 90%
    19:00 +2°C° 0.3 mm 7 m/s 656 mmHg 90%
    20:00 +2°C° 0.3 mm 7 m/s 656 mmHg 91%
    21:00 +2°C° 0.3 mm 7 m/s 656 mmHg 91%
    22:00 +2°C° 1 mm 7 m/s 655 mmHg 91%
    23:00 +1°C° 1 mm 8 m/s 655 mmHg 91%

    Demain, 24 Janvier, Jeudi

    Heure Température Précipitation Vent Pression Humidité
    00:00 +1°C° 1 mm 9 m/s 655 mmHg 91%
    01:00 -1°C° 0.1 mm 11 m/s 655 mmHg 87%
    02:00 -1°C° 0.1 mm 13 m/s 655 mmHg 83%
    03:00 -3°C° 0.1 mm 15 m/s 655 mmHg 79%
    04:00 -2°C° 0.4 mm 13 m/s 655 mmHg 82%
    05:00 -3°C° 0.4 mm 11 m/s 655 mmHg 85%
    06:00 -3°C° 0.4 mm 10 m/s 655 mmHg 89%
    07:00 -3°C° 0.3 mm 9 m/s 655 mmHg 86%
    08:00 -3°C° 0.3 mm 9 m/s 655 mmHg 84%
    09:00 -2°C° 0.3 mm 8 m/s 656 mmHg 82%
    10:00 -3°C° 0.2 mm 10 m/s 656 mmHg 80%
    11:00 -3°C° 0.2 mm 12 m/s 656 mmHg 78%
    12:00 -4°C° 0.2 mm 14 m/s 656 mmHg 75%
    13:00 -4°C° 0 mm 14 m/s 656 mmHg 74%
    14:00 -4°C° 0 mm 14 m/s 656 mmHg 72%
    15:00 -4°C° 0 mm 14 m/s 656 mmHg 71%
    16:00 -5°C° 0 mm 13 m/s 657 mmHg 76%
    17:00 -4°C° 0 mm 11 m/s 657 mmHg 81%
    18:00 -5°C° 0 mm 10 m/s 658 mmHg 87%
    19:00 -5°C° 0.1 mm 10 m/s 658 mmHg 87%
    20:00 -5°C° 0.1 mm 10 m/s 659 mmHg 88%
    21:00 -5°C° 0.1 mm 9 m/s 659 mmHg 88%
    22:00 -5°C° 0.2 mm 9 m/s 660 mmHg 89%
    23:00 -5°C° 0.2 mm 9 m/s 660 mmHg 89%

    Après-demain, 25 Janvier, Vendredi

    Heure Température Précipitation Vent Pression Humidité
    00:00 -5°C° 0.2 mm 9 m/s 660 mmHg 89%
    01:00 -5°C° 0.1 mm 8 m/s 660 mmHg 90%
    02:00 -4°C° 0.1 mm 7 m/s 660 mmHg 91%
    03:00 -4°C° 0.1 mm 6 m/s 660 mmHg 92%
    04:00 -4°C° 0.1 mm 5 m/s 660 mmHg 91%
    05:00 -4°C° 0.1 mm 5 m/s 660 mmHg 91%
    06:00 -4°C° 0.1 mm 5 m/s 661 mmHg 91%
    07:00 -4°C° 0.1 mm 7 m/s 661 mmHg 88%
    08:00 -5°C° 0.1 mm 8 m/s 662 mmHg 85%
    09:00 -4°C° 0.1 mm 10 m/s 662 mmHg 82%
    10:00 -4°C° 0.1 mm 10 m/s 662 mmHg 78%
    11:00 -3°C° 0.1 mm 11 m/s 663 mmHg 73%
    12:00 -2°C° 0.1 mm 11 m/s 663 mmHg 69%
    13:00 -2°C° 0 mm 10 m/s 663 mmHg 68%
    14:00 -2°C° 0 mm 10 m/s 662 mmHg 68%
    15:00 -2°C° 0 mm 10 m/s 662 mmHg 68%
    16:00 -1°C° 0.1 mm 8 m/s 662 mmHg 70%
    17:00 -1°C° 0.1 mm 6 m/s 662 mmHg 72%
    18:00 0°C° 0.1 mm 4 m/s 661 mmHg 74%
    19:00 -1°C° 0.1 mm 4 m/s 661 mmHg 80%
    20:00 -1°C° 0.1 mm 4 m/s 662 mmHg 86%
    21:00 -1°C° 0.1 mm 5 m/s 662 mmHg 91%
    22:00 -1°C° 0.1 mm 5 m/s 662 mmHg 92%
    23:00 -2°C° 0.1 mm 6 m/s 662 mmHg 93%

    26 Janvier, Samedi

    Heure Température Précipitation Vent Pression Humidité
    00:00 -2°C° 0.1 mm 7 m/s 662 mmHg 94%
    01:00 -3°C° 0 mm 7 m/s 662 mmHg 94%
    02:00 -3°C° 0 mm 7 m/s 662 mmHg 94%
    03:00 -5°C° 0 mm 8 m/s 662 mmHg 94%
    04:00 -5°C° 0.1 mm 8 m/s 663 mmHg 93%
    05:00 -5°C° 0.1 mm 9 m/s 663 mmHg 93%
    06:00 -5°C° 0.1 mm 10 m/s 663 mmHg 92%
    07:00 -4°C° 0.1 mm 11 m/s 664 mmHg 89%
    08:00 -5°C° 0.1 mm 12 m/s 665 mmHg 86%
    09:00 -5°C° 0.1 mm 13 m/s 665 mmHg 83%
    10:00 -4°C° 0.1 mm 13 m/s 666 mmHg 80%
    11:00 -2°C° 0.1 mm 13 m/s 666 mmHg 77%
    12:00 -2°C° 0.1 mm 13 m/s 666 mmHg 74%
    13:00 -2°C° 0 mm 11 m/s 666 mmHg 73%
    14:00 -1°C° 0 mm 9 m/s 666 mmHg 73%
    15:00 -1°C° 0 mm 7 m/s 666 mmHg 72%
    16:00 -1°C° 0 mm 5 m/s 666 mmHg 77%
    17:00 -2°C° 0 mm 4 m/s 666 mmHg 82%
    18:00 -2°C° 0 mm 2 m/s 666 mmHg 87%
    19:00 -2°C° 0 mm 2 m/s 666 mmHg 87%
    20:00 -2°C° 0 mm 2 m/s 666 mmHg 87%
    21:00 -3°C° 0 mm 2 m/s 666 mmHg 87%
    22:00 -2°C° 0 mm 2 m/s 666 mmHg 82%
    23:00 -2°C° 0 mm 2 m/s 666 mmHg 78%

    27 Janvier, Dimanche

    Heure Température Précipitation Vent Pression Humidité
    00:00 -2°C° 0 mm 2 m/s 666 mmHg 74%
    01:00 -1°C° 0 mm 3 m/s 665 mmHg 71%
    02:00 -1°C° 0 mm 3 m/s 665 mmHg 68%
    03:00 -1°C° 0 mm 3 m/s 665 mmHg 64%
    04:00 -1°C° 0 mm 3 m/s 664 mmHg 68%
    05:00 -1°C° 0 mm 4 m/s 664 mmHg 72%
    06:00 -1°C° 0 mm 4 m/s 664 mmHg 76%
    07:00 0°C° 0 mm 4 m/s 664 mmHg 77%
    08:00 +1°C° 0 mm 4 m/s 664 mmHg 77%
    09:00 +2°C° 0 mm 5 m/s 664 mmHg 78%
    10:00 +3°C° 0 mm 5 m/s 664 mmHg 76%
    11:00 +5°C° 0 mm 5 m/s 664 mmHg 74%
    12:00 +4°C° 0 mm 6 m/s 664 mmHg 73%
    13:00 +5°C° 0 mm 5 m/s 663 mmHg 73%
    14:00 +5°C° 0 mm 5 m/s 663 mmHg 74%
    15:00 +5°C° 0 mm 5 m/s 662 mmHg 74%
    16:00 +4°C° 0.2 mm 4 m/s 662 mmHg 78%
    17:00 +4°C° 0.2 mm 3 m/s 662 mmHg 82%
    18:00 +3°C° 0.2 mm 3 m/s 662 mmHg 86%
    19:00 +3°C° 0.1 mm 3 m/s 662 mmHg 86%
    20:00 +2°C° 0.1 mm 3 m/s 662 mmHg 86%
    21:00 +1°C° 0.1 mm 4 m/s 662 mmHg 86%
    22:00 +1°C° 0 mm 3 m/s 661 mmHg 85%
    23:00 0°C° 0 mm 3 m/s 661 mmHg 85%

    28 Janvier, Lundi

    Heure Température Précipitation Vent Pression Humidité
    00:00 -1°C° 0 mm 3 m/s 661 mmHg 84%
    01:00 -1°C° 0 mm 3 m/s 660 mmHg 85%
    02:00 -1°C° 0 mm 3 m/s 660 mmHg 86%
    03:00 -1°C° 0 mm 3 m/s 660 mmHg 87%
    04:00 -2°C° 0 mm 3 m/s 659 mmHg 88%
    05:00 -2°C° 0 mm 3 m/s 659 mmHg 88%
    06:00 -2°C° 0 mm 3 m/s 659 mmHg 89%
    07:00 -2°C° 0 mm 4 m/s 660 mmHg 82%
    08:00 -1°C° 0 mm 5 m/s 660 mmHg 75%
    09:00 0°C° 0 mm 5 m/s 660 mmHg 68%
    10:00 +1°C° 0 mm 6 m/s 660 mmHg 64%
    11:00 +1°C° 0 mm 6 m/s 660 mmHg 61%
    12:00 +2°C° 0 mm 7 m/s 660 mmHg 57%
    13:00 +2°C° 0.2 mm 7 m/s 660 mmHg 59%
    14:00 0°C° 0.2 mm 7 m/s 660 mmHg 60%
    15:00 0°C° 0.2 mm 7 m/s 659 mmHg 61%
    16:00 -1°C° 0.1 mm 6 m/s 660 mmHg 66%
    17:00 -1°C° 0.1 mm 5 m/s 660 mmHg 71%
    18:00 -2°C° 0.1 mm 4 m/s 660 mmHg 75%
    19:00 -2°C° 0 mm 4 m/s 660 mmHg 77%
    20:00 -2°C° 0 mm 3 m/s 660 mmHg 78%
    21:00 -4°C° 0 mm 3 m/s 660 mmHg 80%
    22:00 -4°C° 0 mm 3 m/s 660 mmHg 80%
    23:00 -4°C° 0 mm 3 m/s 660 mmHg 80%
    Voir plus